Regional Weather Roundup
Issued by NWS Green Bay, WI

Home | Current Version | Previous Version | Graphics & Text | Print | Product List | Glossary Off
Versions: 1 2 3 4 5 6 7 8 9 10 11 12 13 14 15 16 17 18 19 20 21 22 23 24 25 26 27 28 29 30 31 32 33 34 35 36 37 38 39 40 41 42 43 44 45 46 47 48 49 50

000
ASUS43 KGRB 242100
RWRGRB

NORTH-CENTRAL AND NORTHEAST WISCONSIN REGIONAL WEATHER ROUNDUP
NATIONAL WEATHER SERVICE GREEN BAY WI
400 PM CDT SUN MAY 24 2015

WIZ005-009-010>012-018-019-242200-
NORTH CENTRAL WISCONSIN

CITY           SKY/WX    TMP DP  RH WIND       PRES   REMARKS
IRONWOOD       CLOUDY    72  46  40 N7        29.97F
MANITOWISH WTR NOT AVBL
ARBOR VITAE    NOT AVBL
EAGLE RIVER    NOT AVBL
LAND O LAKES   NOT AVBL
RHINELANDER    LGT RAIN  62  55  77 S8        30.07F
PHILLIPS       NOT AVBL
ANTIGO         NOT AVBL
TOMAHAWK       NOT AVBL
MERRILL        NOT AVBL
$$

WIZ013-073-242200-
NORTHEAST WISCONSIN

CITY           SKY/WX    TMP DP  RH WIND       PRES   REMARKS
IRON MOUNTAIN  CLOUDY    73  49  42 S16       30.03S
MARINETTE      CLOUDY    64  52  63 SW16      30.08S
$$

WIZ017-030-035>037-045-242200-
CENTRAL WISCONSIN

CITY           SKY/WX    TMP DP  RH WIND       PRES   REMARKS
MEDFORD        NOT AVBL
WAUSAU         LGT RAIN  59  56  89 SE9       30.04F
MOSINEE        DRIZZLE   57  57 100 E8        30.06F
MARSHFIELD     LGT RAIN  60  56  86 SE14G21   30.01F
WISC RAPIDS    RAIN      58  55  90 SE9       30.04F FOG
STEVENS POINT  NOT AVBL
WAUPACA        NOT AVBL
SHAWANO        NOT AVBL
CLINTONVILLE   NOT AVBL
$$

WIZ038-039-048-051-242200-
FOX VALLEY

CITY           SKY/WX    TMP DP  RH WIND       PRES   REMARKS
NWS GREEN BAY  LGT RAIN  63  58  83 SE9       30.08F
APPLETON       LGT RAIN  61  57  88 SE8       30.07F
OSHKOSH        LGT RAIN  60  56  86 E8        30.05F FOG
FOND DU LAC    RAIN      60  56  86 SE12      30.05F FOG
$$

WIZ022-050-052-242200-
EAST CENTRAL WISCONSIN

CITY           SKY/WX    TMP DP  RH WIND       PRES   REMARKS
STURGEON BAY   CLOUDY    63  52  67 S10       30.11F
MANITOWOC      NOT AVBL
SHEBOYGAN      LGT RAIN  59  56  89 E7        30.09F FOG
$$

LMZ563-521-522-541>543-242200-
LAKESHORE

STATION/POSITION TIME  TEMP    WIND        PRES    VSBY  WAVE
                       AIR SEA DIR/SP/G                  HT/PER
                 (UTC) (F)     (DEG/KT/KT) (MB)    (MI)  (FT/S)
SHEBOYGAN LKSHOR 2000   48      60/  2/  2 1020.0F
KEWAUNEE LKSHORE 2000   57     190/  6/  8 1019.2F
NORTHPORT PIER   2000   64     160/  3/  8 1019.0F
N MID LAKE BUOY  1950   41 36  180/  8/ 10 1020.0F         1
SISTER BAY LKSHO 2017   67     200/ 11/ 14   N/A
CHAMBERS ISLAND  2000   65     200/  6/ 15 1018.6F
MENOMINEE LKSHOR 2000   67     200/ 12/ 17 1019.4F
$$



USA.gov is the U.S. government's official web portal to all federal, state and local government web resources and services.